QPF
0.00 0.00 0.00 0.00 0.00 0.00 0.00 0.00 0.00 0.00 0.00 0.00 0.00 0.00 0.01 0.01 0.01 0.00 0.01 0.02 0.06 0.02 0.03 0.01 0.00 0.00 0.00 0.00 0.00 0.01 0.02 0.02 0.03 0.03 0.05 0.07 0.07 0.08 0.09 0.08 0.07 0.06 0.05 0.04
0.00 0.00 0.00 0.00 0.00 0.00 0.00 0.00 0.00 0.00 0.00 0.00 0.00 0.01 0.02 0.03 0.02 0.01 0.00 0.01 0.02 0.02 0.03 0.02 0.01 0.00 0.00 0.00 0.00 0.01 0.01 0.02 0.02 0.03 0.04 0.06 0.06 0.07 0.08 0.08 0.08 0.06 0.05 0.03
0.00 0.00 0.00 0.00 0.00 0.00 0.00 0.00 0.00 0.00 0.00 0.00 0.00 0.01 0.03 0.04 0.02 0.01 0.00 0.00 0.00 0.00 0.01 0.01 0.01 0.00 0.00 0.00 0.00 0.01 0.01 0.02 0.02 0.03 0.04 0.04 0.05 0.05 0.07 0.06 0.07 0.07 0.05 0.03
0.00 0.00 0.00 0.00 0.00 0.00 0.00 0.00 0.01 0.01 0.00 0.00 0.00 0.00 0.01 0.02 0.01 0.00 0.00 0.00 0.01 0.01 0.00 0.00 0.00 0.00 0.00 0.00 0.00 0.01 0.01 0.01 0.02 0.03 0.03 0.04 0.04 0.05 0.06 0.06 0.07 0.07 0.06 0.05
0.00 0.00 0.00 0.00 0.00 0.00 0.00 0.00 0.00 0.00 0.00 0.00 0.00 0.00 0.00 0.01 0.01 0.01 0.00 0.00 0.01 0.01 0.00 0.00 0.00 0.00 0.00 0.00 0.00 0.01 0.01 0.02 0.02 0.03 0.04 0.04 0.05 0.06 0.06 0.06 0.08 0.08 0.07 0.07
0.00 0.00 0.00 0.00 0.00 0.00 0.00 0.00 0.00 0.00 0.00 0.01 0.00 0.00 0.00 0.01 0.01 0.01 0.01 0.00 0.00 0.00 0.00 0.00 0.00 0.01 0.03 0.02 0.01 0.01 0.02 0.02 0.02 0.03 0.03 0.04 0.04 0.05 0.05 0.06 0.07 0.07 0.07 0.06
0.00 0.00 0.00 0.00 0.00 0.00 0.00 0.00 0.00 0.00 0.01 0.01 0.01 0.01 0.01 0.01 0.01 0.03 0.04 0.02 0.02 0.01 0.00 0.00 0.00 0.01 0.01 0.03 0.02 0.01 0.02 0.03 0.02 0.03 0.03 0.04 0.05 0.05 0.05 0.06 0.07 0.07 0.06 0.05
0.00 0.00 0.00 0.00 0.00 0.00 0.00 0.00 0.00 0.01 0.01 0.01 0.01 0.02 0.01 0.02 0.02 0.02 0.02 0.01 0.02 0.01 0.00 0.00 0.00 0.00 0.00 0.01 0.02 0.02 0.03 0.03 0.03 0.03 0.03 0.04 0.05 0.06 0.06 0.06 0.07 0.06 0.05 0.04
0.00 0.00 0.00 0.00 0.00 0.00 0.00 0.00 0.00 0.00 0.01 0.01 0.01 0.01 0.02 0.03 0.02 0.02 0.02 0.01 0.00 0.00 0.00 0.00 0.00 0.02 0.02 0.01 0.03 0.03 0.03 0.03 0.03 0.05 0.05 0.04 0.04 0.05 0.05 0.06 0.06 0.06 0.05 0.04
0.00 0.00 0.00 0.00 0.00 0.00 0.00 0.00 0.00 0.01 0.01 0.02 0.02 0.02 0.03 0.02 0.01 0.01 0.01 0.01 0.00 0.00 0.00 0.00 0.00 0.01 0.03 0.02 0.03 0.04 0.03 0.04 0.05 0.06 0.05 0.04 0.05 0.04 0.05 0.05 0.05 0.04 0.04 0.05
0.00 0.00 0.00 0.00 0.00 0.00 0.00 0.00 0.00 0.01 0.01 0.02 0.03 0.04 0.02 0.02 0.02 0.02 0.02 0.01 0.01 0.00 0.00 0.00 0.00 0.01 0.02 0.02 0.03 0.03 0.04 0.05 0.06 0.06 0.05 0.05 0.06 0.05 0.05 0.05 0.04 0.04 0.04 0.04
0.00 0.00 0.00 0.00 0.00 0.00 0.00 0.00 0.00 0.01 0.02 0.02 0.03 0.05 0.02 0.02 0.02 0.03 0.03 0.02 0.02 0.01 0.00 0.00 0.00 0.01 0.01 0.01 0.02 0.03 0.04 0.04 0.05 0.05 0.06 0.07 0.07 0.06 0.05 0.04 0.04 0.04 0.05 0.05
0.00 0.00 0.01 0.01 0.00 0.00 0.00 0.00 0.00 0.01 0.02 0.03 0.04 0.05 0.02 0.03 0.06 0.06 0.04 0.04 0.05 0.02 0.01 0.01 0.01 0.01 0.01 0.01 0.01 0.02 0.03 0.03 0.03 0.04 0.05 0.06 0.06 0.05 0.05 0.05 0.05 0.06 0.08 0.09
0.00 0.00 0.01 0.01 0.01 0.01 0.00 0.00 0.00 0.01 0.01 0.02 0.04 0.03 0.03 0.03 0.03 0.03 0.03 0.05 0.06 0.03 0.01 0.01 0.01 0.01 0.01 0.02 0.02 0.03 0.02 0.03 0.04 0.05 0.04 0.05 0.06 0.06 0.05 0.04 0.04 0.05 0.10 0.13
0.00 0.00 0.00 0.00 0.01 0.01 0.01 0.00 0.00 0.01 0.01 0.02 0.03 0.02 0.04 0.05 0.03 0.03 0.04 0.05 0.08 0.04 0.01 0.01 0.01 0.01 0.01 0.02 0.04 0.05 0.03 0.03 0.05 0.06 0.05 0.05 0.05 0.05 0.04 0.04 0.05 0.05 0.05 0.09
0.00 0.01 0.01 0.01 0.00 0.01 0.01 0.00 0.00 0.00 0.01 0.02 0.03 0.02 0.03 0.03 0.01 0.02 0.04 0.08 0.08 0.05 0.02 0.01 0.02 0.02 0.02 0.03 0.03 0.05 0.05 0.05 0.06 0.05 0.04 0.05 0.04 0.04 0.03 0.04 0.05 0.06 0.07 0.07
0.01 0.02 0.02 0.02 0.01 0.01 0.01 0.00 0.00 0.01 0.01 0.04 0.03 0.01 0.01 0.02 0.02 0.02 0.02 0.03 0.04 0.04 0.03 0.02 0.02 0.02 0.02 0.02 0.03 0.05 0.05 0.04 0.05 0.05 0.04 0.04 0.04 0.04 0.04 0.05 0.05 0.06 0.07 0.07
0.02 0.03 0.04 0.02 0.03 0.02 0.01 0.01 0.00 0.01 0.01 0.03 0.02 0.02 0.01 0.02 0.02 0.02 0.01 0.02 0.02 0.03 0.03 0.03 0.04 0.04 0.04 0.03 0.03 0.03 0.03 0.03 0.05 0.06 0.05 0.04 0.04 0.05 0.06 0.06 0.06 0.06 0.05 0.06
0.01 0.04 0.05 0.04 0.04 0.03 0.01 0.01 0.01 0.01 0.01 0.01 0.01 0.01 0.01 0.02 0.03 0.02 0.01 0.01 0.02 0.03 0.04 0.04 0.04 0.04 0.04 0.03 0.02 0.01 0.01 0.02 0.04 0.05 0.06 0.05 0.05 0.05 0.06 0.07 0.07 0.06 0.06 0.06
0.01 0.03 0.05 0.04 0.05 0.05 0.04 0.03 0.02 0.02 0.03 0.01 0.01 0.01 0.02 0.02 0.04 0.03 0.02 0.02 0.03 0.04 0.04 0.04 0.04 0.06 0.03 0.02 0.02 0.02 0.02 0.02 0.03 0.04 0.05 0.06 0.07 0.07 0.07 0.07 0.07 0.08 0.08 0.06
0.02 0.03 0.03 0.03 0.05 0.05 0.05 0.04 0.04 0.05 0.07 0.05 0.02 0.01 0.01 0.02 0.04 0.03 0.02 0.02 0.03 0.05 0.05 0.03 0.03 0.04 0.03 0.02 0.02 0.02 0.02 0.02 0.03 0.04 0.06 0.08 0.08 0.07 0.07 0.07 0.07 0.07 0.06 0.06
0.05 0.05 0.04 0.05 0.06 0.06 0.04 0.04 0.06 0.07 0.06 0.04 0.03 0.03 0.02 0.02 0.03 0.02 0.02 0.02 0.03 0.05 0.04 0.02 0.02 0.02 0.03 0.04 0.03 0.02 0.02 0.02 0.03 0.06 0.09 0.10 0.08 0.07 0.06 0.08 0.08 0.08 0.06 0.06
0.05 0.06 0.06 0.06 0.06 0.04 0.02 0.04 0.05 0.06 0.05 0.03 0.03 0.03 0.02 0.02 0.02 0.02 0.02 0.03 0.05 0.05 0.03 0.02 0.01 0.02 0.02 0.03 0.03 0.03 0.03 0.03 0.03 0.05 0.07 0.08 0.08 0.08 0.07 0.07 0.06 0.06 0.06 0.04
0.06 0.04 0.05 0.06 0.04 0.03 0.03 0.03 0.05 0.06 0.05 0.04 0.02 0.02 0.02 0.02 0.01 0.01 0.02 0.02 0.04 0.07 0.03 0.02 0.01 0.01 0.02 0.03 0.02 0.03 0.03 0.04 0.05 0.05 0.06 0.07 0.07 0.07 0.07 0.08 0.06 0.05 0.04 0.04
0.07 0.07 0.07 0.07 0.05 0.05 0.05 0.06 0.06 0.08 0.09 0.06 0.04 0.02 0.01 0.02 0.02 0.02 0.03 0.02 0.03 0.06 0.04 0.02 0.02 0.02 0.02 0.02 0.02 0.02 0.02 0.03 0.04 0.05 0.06 0.05 0.05 0.05 0.06 0.06 0.06 0.04 0.04 0.05
0.07 0.09 0.12 0.11 0.08 0.07 0.05 0.04 0.03 0.03 0.03 0.04 0.04 0.04 0.02 0.02 0.04 0.04 0.03 0.02 0.02 0.03 0.03 0.03 0.02 0.01 0.01 0.01 0.02 0.02 0.03 0.04 0.04 0.04 0.04 0.04 0.04 0.04 0.04 0.05 0.05 0.05 0.05 0.05
MSLP
1005.21 1005.31 1005.29 1005.19 1005.06 1004.96 1004.92 1004.95 1005.02 1005.09 1005.10 1005.00 1004.75 1004.34 1003.79 1003.14 1002.45 1001.81 1001.26 1000.85 1000.60 1000.51 1000.59 1000.79 1001.11 1001.53 1002.05 1002.65 1003.34 1004.10 1004.92 1005.77 1006.62 1007.42 1008.14 1008.78 1009.31 1009.75 1010.13 1010.48 1010.84 1011.22 1011.66 1012.15
1005.34 1005.32 1005.19 1005.02 1004.86 1004.76 1004.76 1004.86 1005.00 1005.14 1005.20 1005.11 1004.84 1004.39 1003.78 1003.06 1002.34 1001.67 1001.12 1000.74 1000.52 1000.48 1000.57 1000.76 1001.04 1001.39 1001.80 1002.30 1002.89 1003.57 1004.36 1005.21 1006.10 1006.96 1007.77 1008.48 1009.08 1009.55 1009.94 1010.27 1010.59 1010.93 1011.33 1011.80
1005.39 1005.27 1005.06 1004.83 1004.66 1004.59 1004.65 1004.82 1005.04 1005.24 1005.34 1005.26 1004.98 1004.49 1003.83 1003.08 1002.33 1001.66 1001.13 1000.78 1000.62 1000.60 1000.71 1000.88 1001.10 1001.36 1001.65 1002.02 1002.48 1003.07 1003.79 1004.61 1005.51 1006.43 1007.31 1008.10 1008.76 1009.29 1009.71 1010.05 1010.36 1010.68 1011.06 1011.51
1005.45 1005.24 1004.97 1004.72 1004.56 1004.54 1004.67 1004.92 1005.23 1005.49 1005.62 1005.56 1005.27 1004.75 1004.07 1003.29 1002.53 1001.86 1001.35 1001.04 1000.90 1000.91 1001.01 1001.14 1001.29 1001.43 1001.59 1001.80 1002.11 1002.57 1003.19 1003.97 1004.85 1005.80 1006.74 1007.60 1008.34 1008.94 1009.41 1009.79 1010.11 1010.43 1010.81 1011.25
1005.60 1005.33 1005.03 1004.78 1004.66 1004.69 1004.90 1005.23 1005.61 1005.94 1006.12 1006.08 1005.79 1005.27 1004.57 1003.79 1003.01 1002.35 1001.85 1001.54 1001.41 1001.40 1001.46 1001.53 1001.57 1001.58 1001.58 1001.62 1001.77 1002.08 1002.58 1003.28 1004.13 1005.08 1006.06 1006.98 1007.80 1008.48 1009.02 1009.45 1009.81 1010.16 1010.55 1010.99
1005.93 1005.63 1005.32 1005.08 1005.00 1005.09 1005.37 1005.78 1006.23 1006.62 1006.85 1006.85 1006.59 1006.08 1005.39 1004.60 1003.83 1003.15 1002.64 1002.31 1002.14 1002.08 1002.06 1002.02 1001.93 1001.78 1001.61 1001.48 1001.46 1001.60 1001.97 1002.57 1003.36 1004.29 1005.28 1006.25 1007.14 1007.89 1008.51 1009.00 1009.42 1009.82 1010.23 1010.70
1006.50 1006.18 1005.87 1005.65 1005.60 1005.74 1006.07 1006.53 1007.04 1007.48 1007.77 1007.83 1007.61 1007.14 1006.48 1005.71 1004.94 1004.26 1003.71 1003.33 1003.08 1002.92 1002.78 1002.61 1002.36 1002.05 1001.70 1001.39 1001.18 1001.17 1001.39 1001.87 1002.58 1003.47 1004.45 1005.44 1006.37 1007.19 1007.87 1008.44 1008.92 1009.36 1009.82 1010.31
1007.28 1006.95 1006.65 1006.45 1006.41 1006.57 1006.93 1007.42 1007.96 1008.45 1008.80 1008.91 1008.77 1008.37 1007.77 1007.04 1006.29 1005.59 1005.00 1004.53 1004.18 1003.88 1003.60 1003.26 1002.84 1002.36 1001.84 1001.35 1000.98 1000.80 1000.88 1001.23 1001.84 1002.66 1003.60 1004.59 1005.54 1006.40 1007.14 1007.76 1008.30 1008.79 1009.29 1009.82
1008.20 1007.89 1007.60 1007.40 1007.36 1007.51 1007.85 1008.34 1008.90 1009.42 1009.82 1010.01 1009.96 1009.65 1009.14 1008.47 1007.75 1007.04 1006.40 1005.85 1005.37 1004.92 1004.47 1003.96 1003.37 1002.71 1002.03 1001.39 1000.86 1000.54 1000.48 1000.71 1001.20 1001.93 1002.81 1003.76 1004.70 1005.58 1006.35 1007.01 1007.59 1008.12 1008.65 1009.21
1009.16 1008.88 1008.60 1008.40 1008.34 1008.45 1008.75 1009.21 1009.75 1010.29 1010.73 1011.01 1011.06 1010.87 1010.46 1009.89 1009.22 1008.52 1007.83 1007.18 1006.57 1005.98 1005.35 1004.67 1003.92 1003.11 1002.29 1001.51 1000.86 1000.40 1000.22 1000.32 1000.70 1001.32 1002.11 1003.00 1003.91 1004.77 1005.55 1006.23 1006.84 1007.40 1007.95 1008.53
1010.01 1009.79 1009.54 1009.34 1009.24 1009.31 1009.55 1009.95 1010.46 1011.00 1011.48 1011.83 1011.99 1011.93 1011.65 1011.18 1010.58 1009.90 1009.18 1008.45 1007.73 1006.98 1006.20 1005.37 1004.47 1003.54 1002.60 1001.72 1000.96 1000.40 1000.11 1000.09 1000.35 1000.86 1001.55 1002.35 1003.20 1004.03 1004.79 1005.48 1006.09 1006.67 1007.23 1007.81
1010.69 1010.53 1010.33 1010.14 1010.02 1010.03 1010.21 1010.55 1011.01 1011.54 1012.05 1012.47 1012.74 1012.80 1012.66 1012.30 1011.78 1011.13 1010.39 1009.60 1008.77 1007.90 1006.99 1006.03 1005.01 1003.98 1002.95 1001.99 1001.16 1000.52 1000.13 1000.00 1000.15 1000.54 1001.12 1001.83 1002.61 1003.39 1004.12 1004.80 1005.42 1005.99 1006.56 1007.14
1011.15 1011.08 1010.94 1010.78 1010.65 1010.63 1010.75 1011.03 1011.45 1011.96 1012.49 1012.97 1013.33 1013.51 1013.48 1013.24 1012.79 1012.19 1011.45 1010.61 1009.69 1008.72 1007.70 1006.63 1005.52 1004.41 1003.33 1002.31 1001.43 1000.72 1000.25 1000.03 1000.07 1000.34 1000.81 1001.43 1002.12 1002.85 1003.56 1004.22 1004.84 1005.42 1005.98 1006.55
1011.41 1011.46 1011.40 1011.28 1011.18 1011.14 1011.23 1011.46 1011.84 1012.33 1012.87 1013.39 1013.82 1014.09 1014.17 1014.02 1013.65 1013.08 1012.34 1011.47 1010.49 1009.44 1008.33 1007.18 1006.01 1004.84 1003.71 1002.66 1001.73 1000.97 1000.43 1000.13 1000.06 1000.23 1000.60 1001.12 1001.74 1002.42 1003.10 1003.75 1004.37 1004.95 1005.51 1006.07
1011.56 1011.71 1011.74 1011.70 1011.64 1011.62 1011.70 1011.90 1012.25 1012.72 1013.25 1013.80 1014.27 1014.62 1014.77 1014.69 1014.38 1013.84 1013.11 1012.22 1011.19 1010.08 1008.90 1007.69 1006.47 1005.26 1004.11 1003.03 1002.07 1001.26 1000.66 1000.27 1000.11 1000.18 1000.45 1000.88 1001.44 1002.07 1002.73 1003.38 1004.01 1004.60 1005.16 1005.71
1011.66 1011.91 1012.04 1012.09 1012.10 1012.11 1012.20 1012.40 1012.73 1013.18 1013.70 1014.25 1014.75 1015.13 1015.33 1015.30 1015.03 1014.52 1013.79 1012.88 1011.83 1010.67 1009.44 1008.19 1006.93 1005.70 1004.51 1003.41 1002.43 1001.58 1000.92 1000.46 1000.21 1000.18 1000.35 1000.71 1001.19 1001.78 1002.42 1003.07 1003.71 1004.31 1004.88 1005.42
1011.78 1012.12 1012.35 1012.49 1012.57 1012.64 1012.76 1012.97 1013.29 1013.72 1014.23 1014.76 1015.26 1015.65 1015.87 1015.87 1015.63 1015.14 1014.41 1013.50 1012.42 1011.23 1009.98 1008.70 1007.41 1006.16 1004.96 1003.84 1002.82 1001.94 1001.22 1000.69 1000.35 1000.23 1000.31 1000.58 1001.00 1001.54 1002.15 1002.80 1003.44 1004.06 1004.63 1005.17
1011.96 1012.37 1012.69 1012.91 1013.07 1013.20 1013.36 1013.59 1013.91 1014.32 1014.81 1015.32 1015.80 1016.19 1016.41 1016.42 1016.19 1015.71 1014.99 1014.07 1012.99 1011.80 1010.53 1009.23 1007.93 1006.67 1005.45 1004.32 1003.28 1002.36 1001.59 1000.98 1000.56 1000.34 1000.33 1000.50 1000.84 1001.31 1001.89 1002.51 1003.15 1003.77 1004.35 1004.88
1012.20 1012.66 1013.04 1013.33 1013.56 1013.75 1013.95 1014.20 1014.52 1014.92 1015.38 1015.87 1016.32 1016.69 1016.90 1016.91 1016.68 1016.21 1015.51 1014.61 1013.53 1012.34 1011.07 1009.78 1008.48 1007.22 1006.00 1004.86 1003.80 1002.85 1002.03 1001.35 1000.85 1000.53 1000.41 1000.47 1000.71 1001.10 1001.60 1002.17 1002.78 1003.38 1003.96 1004.49
1012.49 1012.97 1013.38 1013.72 1014.00 1014.24 1014.48 1014.75 1015.07 1015.45 1015.89 1016.34 1016.76 1017.10 1017.30 1017.30 1017.08 1016.63 1015.95 1015.06 1014.02 1012.84 1011.60 1010.32 1009.04 1007.79 1006.59 1005.45 1004.39 1003.41 1002.55 1001.82 1001.23 1000.81 1000.56 1000.49 1000.60 1000.87 1001.27 1001.75 1002.30 1002.87 1003.42 1003.95
1012.77 1013.25 1013.68 1014.05 1014.36 1014.64 1014.90 1015.18 1015.49 1015.86 1016.26 1016.68 1017.07 1017.37 1017.55 1017.55 1017.34 1016.91 1016.26 1015.41 1014.40 1013.27 1012.06 1010.82 1009.58 1008.36 1007.19 1006.07 1005.02 1004.04 1003.15 1002.36 1001.69 1001.16 1000.78 1000.57 1000.52 1000.63 1000.88 1001.25 1001.69 1002.19 1002.71 1003.23
1013.04 1013.51 1013.93 1014.31 1014.63 1014.91 1015.18 1015.46 1015.76 1016.10 1016.47 1016.85 1017.20 1017.47 1017.63 1017.62 1017.42 1017.01 1016.40 1015.60 1014.64 1013.57 1012.42 1011.24 1010.06 1008.90 1007.77 1006.70 1005.67 1004.70 1003.79 1002.96 1002.21 1001.57 1001.06 1000.68 1000.45 1000.38 1000.46 1000.66 1000.98 1001.38 1001.83 1002.33
1013.28 1013.72 1014.12 1014.48 1014.80 1015.08 1015.34 1015.60 1015.88 1016.18 1016.51 1016.84 1017.14 1017.39 1017.52 1017.51 1017.32 1016.94 1016.37 1015.62 1014.73 1013.73 1012.66 1011.55 1010.45 1009.36 1008.31 1007.29 1006.31 1005.37 1004.46 1003.60 1002.79 1002.05 1001.39 1000.85 1000.43 1000.15 1000.03 1000.05 1000.20 1000.48 1000.85 1001.31
1013.49 1013.90 1014.27 1014.61 1014.90 1015.16 1015.39 1015.62 1015.86 1016.12 1016.40 1016.68 1016.93 1017.13 1017.24 1017.22 1017.04 1016.69 1016.16 1015.48 1014.67 1013.75 1012.77 1011.76 1010.75 1009.75 1008.78 1007.84 1006.93 1006.03 1005.14 1004.26 1003.40 1002.57 1001.79 1001.09 1000.48 1000.00 999.67 999.49 999.47 999.60 999.87 1000.27
1013.69 1014.06 1014.40 1014.70 1014.96 1015.19 1015.39 1015.57 1015.77 1015.97 1016.19 1016.40 1016.61 1016.76 1016.84 1016.80 1016.63 1016.31 1015.84 1015.23 1014.50 1013.68 1012.80 1011.89 1010.98 1010.09 1009.21 1008.36 1007.52 1006.67 1005.82 1004.94 1004.05 1003.16 1002.28 1001.43 1000.67 1000.00 999.47 999.10 998.90 998.88 999.03 999.35
1013.87 1014.21 1014.51 1014.78 1015.01 1015.19 1015.35 1015.49 1015.63 1015.78 1015.93 1016.09 1016.24 1016.34 1016.39 1016.34 1016.18 1015.90 1015.48 1014.94 1014.30 1013.58 1012.80 1012.00 1011.20 1010.41 1009.63 1008.87 1008.10 1007.32 1006.51 1005.65 1004.76 1003.83 1002.88 1001.94 1001.04 1000.23 999.54 999.01 998.65 998.48 998.51 998.72
Thickness
5790 5779 5777 5790 5799 5802 5804 5801 5803 5816 5834 5821 5810 5812 5822 5831 5830 5829 5828 5826 5821 5819 5821 5819 5815 5812 5806 5801 5796 5791 5786 5782 5778 5772 5767 5762 5758 5757 5756 5754 5752 5750 5748 5747
5777 5774 5793 5803 5805 5802 5799 5794 5800 5815 5829 5819 5808 5808 5821 5827 5826 5828 5827 5824 5820 5817 5815 5811 5810 5808 5803 5798 5794 5789 5785 5781 5777 5772 5767 5763 5759 5756 5755 5753 5750 5748 5746 5745
5769 5788 5802 5797 5793 5791 5792 5791 5795 5801 5814 5815 5805 5796 5808 5820 5826 5829 5829 5828 5825 5819 5810 5807 5806 5804 5801 5796 5792 5789 5783 5779 5775 5771 5766 5762 5757 5754 5752 5749 5747 5746 5744 5743
5776 5794 5797 5791 5788 5789 5781 5799 5800 5798 5791 5788 5796 5775 5798 5811 5813 5818 5821 5823 5823 5821 5815 5808 5805 5802 5799 5796 5792 5787 5782 5777 5773 5769 5764 5758 5752 5748 5748 5747 5746 5744 5743 5741
5773 5786 5786 5781 5788 5792 5789 5803 5798 5793 5785 5779 5788 5779 5792 5811 5803 5809 5815 5819 5820 5819 5815 5809 5805 5800 5797 5795 5789 5784 5779 5774 5770 5766 5762 5757 5753 5750 5749 5747 5744 5742 5741 5740
5777 5792 5791 5788 5795 5797 5796 5791 5790 5789 5781 5757 5776 5776 5778 5800 5805 5808 5812 5815 5815 5814 5813 5809 5805 5800 5795 5792 5787 5781 5775 5770 5767 5763 5759 5755 5751 5748 5746 5743 5741 5739 5738 5737
5761 5776 5788 5792 5779 5785 5784 5767 5751 5750 5751 5755 5784 5777 5781 5805 5815 5813 5809 5809 5810 5810 5808 5804 5799 5794 5790 5785 5781 5778 5772 5766 5763 5759 5756 5753 5750 5747 5744 5741 5739 5737 5735 5734
5743 5748 5772 5781 5775 5769 5773 5767 5745 5734 5743 5762 5780 5770 5787 5811 5815 5815 5813 5809 5807 5804 5803 5799 5795 5792 5787 5783 5779 5775 5769 5763 5760 5756 5753 5751 5748 5746 5743 5741 5739 5736 5734 5733
5744 5748 5775 5782 5784 5776 5764 5765 5775 5759 5757 5753 5763 5775 5787 5805 5804 5801 5800 5801 5799 5799 5797 5794 5791 5787 5783 5780 5775 5772 5766 5761 5758 5754 5751 5747 5745 5743 5741 5740 5738 5735 5734 5733
5752 5740 5763 5777 5778 5777 5775 5772 5762 5749 5732 5735 5753 5764 5766 5779 5788 5794 5792 5793 5793 5793 5791 5788 5785 5781 5779 5776 5772 5769 5764 5759 5756 5752 5749 5746 5742 5740 5739 5737 5734 5733 5731 5730
5750 5735 5745 5758 5754 5754 5761 5761 5757 5751 5749 5736 5735 5752 5783 5782 5785 5787 5788 5789 5789 5787 5784 5781 5778 5776 5773 5770 5766 5761 5759 5756 5753 5749 5746 5742 5739 5738 5736 5734 5732 5731 5729 5727
5741 5733 5727 5743 5765 5772 5765 5760 5755 5734 5734 5742 5737 5747 5785 5786 5787 5787 5786 5784 5783 5781 5779 5776 5773 5769 5765 5762 5760 5756 5755 5752 5750 5746 5742 5739 5736 5734 5732 5730 5729 5728 5726 5725
5728 5718 5707 5718 5738 5750 5749 5755 5756 5752 5744 5737 5731 5744 5779 5781 5781 5780 5780 5777 5773 5772 5771 5768 5765 5761 5758 5756 5753 5751 5750 5748 5747 5743 5738 5735 5732 5730 5728 5727 5726 5724 5722 5721
5724 5710 5704 5703 5719 5734 5735 5743 5749 5745 5733 5732 5741 5747 5757 5765 5764 5767 5771 5769 5766 5763 5762 5759 5756 5754 5753 5750 5747 5745 5743 5743 5742 5738 5734 5730 5728 5726 5725 5724 5722 5720 5719 5718
5714 5700 5706 5715 5728 5734 5736 5738 5742 5740 5740 5734 5742 5746 5749 5758 5758 5761 5762 5762 5759 5755 5754 5752 5750 5747 5746 5743 5741 5739 5738 5738 5737 5733 5729 5727 5725 5723 5722 5720 5718 5717 5715 5714
5703 5694 5698 5703 5720 5725 5726 5733 5739 5740 5743 5741 5743 5744 5759 5761 5761 5757 5755 5754 5751 5748 5747 5746 5744 5741 5739 5737 5735 5733 5732 5731 5730 5726 5723 5722 5721 5719 5717 5716 5714 5712 5710 5709
5690 5686 5683 5688 5710 5713 5709 5726 5730 5733 5740 5739 5733 5744 5757 5754 5751 5749 5750 5749 5746 5744 5742 5740 5738 5736 5734 5733 5730 5727 5726 5726 5723 5720 5718 5717 5716 5714 5713 5712 5709 5707 5705 5704
5680 5677 5680 5683 5688 5676 5711 5737 5738 5734 5737 5741 5739 5742 5748 5746 5747 5748 5749 5745 5742 5741 5738 5736 5733 5731 5730 5729 5726 5724 5722 5720 5717 5715 5713 5712 5711 5709 5707 5705 5703 5702 5700 5698
5684 5673 5669 5673 5674 5683 5707 5719 5723 5720 5723 5737 5734 5736 5742 5744 5741 5738 5743 5743 5739 5738 5735 5732 5729 5726 5724 5722 5721 5718 5716 5715 5712 5710 5709 5708 5706 5704 5701 5699 5697 5696 5695 5692
5679 5674 5663 5666 5664 5665 5688 5712 5726 5720 5709 5729 5732 5730 5734 5733 5720 5721 5733 5735 5734 5732 5730 5727 5724 5721 5717 5716 5715 5712 5709 5707 5706 5705 5705 5704 5702 5700 5697 5695 5693 5691 5690 5688
5661 5661 5658 5660 5661 5673 5690 5703 5711 5692 5695 5715 5720 5721 5722 5720 5718 5720 5725 5725 5726 5724 5723 5721 5718 5714 5711 5710 5708 5704 5702 5701 5702 5702 5701 5699 5698 5695 5693 5691 5689 5687 5686 5684
5657 5656 5656 5658 5654 5659 5686 5693 5686 5686 5701 5706 5707 5707 5709 5712 5714 5715 5715 5715 5716 5715 5714 5714 5711 5708 5707 5705 5702 5698 5696 5697 5697 5696 5694 5692 5692 5691 5690 5686 5684 5682 5681 5679
5656 5654 5657 5656 5657 5671 5682 5683 5687 5691 5691 5696 5698 5699 5700 5702 5704 5706 5705 5705 5706 5705 5705 5705 5703 5701 5700 5699 5696 5692 5691 5692 5691 5689 5687 5686 5686 5686 5684 5681 5678 5677 5676 5675
5650 5657 5655 5653 5660 5667 5673 5678 5681 5685 5685 5688 5690 5691 5691 5693 5695 5696 5696 5696 5696 5697 5697 5697 5695 5693 5691 5691 5690 5688 5687 5687 5685 5682 5681 5680 5680 5679 5679 5677 5676 5673 5672 5671
5635 5640 5642 5643 5649 5657 5665 5668 5671 5675 5678 5679 5683 5686 5686 5688 5687 5688 5688 5688 5688 5689 5689 5689 5687 5684 5684 5684 5682 5682 5681 5680 5677 5676 5675 5674 5675 5675 5673 5671 5669 5669 5667 5666
5632 5632 5630 5632 5641 5646 5651 5660 5664 5666 5668 5671 5674 5677 5680 5681 5679 5681 5682 5683 5683 5682 5682 5681 5679 5678 5677 5676 5675 5675 5675 5674 5671 5669 5669 5669 5669 5669 5668 5665 5662 5660 5660 5659